COSMOS 1275 DEB, 42124

Orbit data source: Space-Track

COSMOS 1275 DEB, 42124 is space debris in LEO originally from a launch on Thu, 04 Jun 1981 UTC launched from the Plesetsk Missile And Space Complex (PKMTR). Debris objects in space refer to the collection of defunct objects orbiting the Earth. Examples of debris include non-operational satellites, rocket bodies, and fragments generated from explosions, collisions, or faulty payload assembly.

Loading next visibility...
Identifier
42124, 1981-053QL
Orbit
LEO
Country
Flag of CISCIS
Related business
Manufacturer
Unknown
Mission
Spacecraft
Bus & Motor
Unknown
Mass
Unknown
Launch date (UTC)
1981-06-04 (45 years ago)
Launch vehicle
Unknown
Launch site
Plesetsk Missile And Space Complex (PKMTR)
Object type
Payload
Rocket body
Debris
Shape & HBR
Unknown shape, 0.1 m
Radar Cross Section
Small (<0.1 m²)

Expand to show TLE details & history
Last TLE update: 23 hours ago

TLE from 23 hours ago
0 COSMOS 1275 DEB
1 42124U 81053QL  26033.54566729  .00000380  00000-0  41198-3 0  9995
2 42124  83.0079  68.7180 0121371 276.8952 237.9236 13.67755200607557
Epoch: 2026-02-02T13:05Z
TLE epoch observation values (Epoch: 2026-02-02T13:05:45.653Z)
Latitude
26.17192°
Longitude
-83.89939°
Altitude
1,059.197 km
Speed
7.301 km/s
True Right ascension
16h 21m 07s
True Declination
26° 02' 30"
Sunlit
Object was in daylight at epoch
Visualization orbit readout
Latitude
Unknown
Longitude
Unknown
Altitude
Unknown
Speed
Unknown
Apparent Right ascension
Unknown
Apparent Declination
Unknown
Sunlit
N/A
Visualization observer readout
Local Sidereal Time
13:44:58
Azimuth
Unknown
Elevation
Unknown
Doppler factor
Unknown
Orbital elements
Apogee altitude
1,094.404 km
Perigee altitude
915.19 km
Semi-major axis
7,382.934 km
Eccentricity
0.01214
Inclination
83.0079°
RAAN
68.718°
Arg. of periapsis
276.8952°
True anomaly
236.75461°
Mean anomaly
237.9236°
Eccentric anomaly
237.33816°
Mean motion
3.42137 °/min
Orbital period
105.22 mins
BSTAR
0.00041198
Loading maneuver chart data...
Computing Atmospheric mass density...

Documentation

Showing up to 5 results
|